Home   Weather   Neumünster   Past weeks

Flag for Germany Past Weather in Neumünster, Schleswig-Holstein, Germany — Yesterday and Last 2 Weeks

Now
58 °F

Overcast.


Feels Like: 58 °F
Forecast: 49 / 65 °F
Wind: 1 mph from West

Location: Itzehoe

Current Time: Sep 26, 2016 at 9:15:25 AM

Latest Report: Sep 26, 2016 at 7:00 AM


Visibility: 3 mi

Pressure: 30.16 "Hg

Humidity: 97%

Dew Point: 57 °F

Location of NeumünsterLocation

Past Weather in Neumünster — Graph

°F

Neumünster Temperature Yesterday

Maximum temperature yesterday: 73 °F (at 4:00 PM)
Minimum temperature yesterday: 53 °F (at 7:00 AM)
Average temperature yesterday: 62 °F

High & Low Weather Summary for the Past Weeks

 TemperatureHumidityPressure
High84 °F (Sep 13, 6:00 PM)98% (Sep 11, 7:00 AM)30.27 "Hg (Sep 11, 7:00 AM)
Low42 °F (Sep 24, 6:00 AM)38% (Sep 13, 6:00 PM)29.89 "Hg (Sep 16, 7:00 AM)
Average63 °F76%30.09 "Hg
* Reported Sep 11 7:00 AM — Sep 26 7:00 AM, Neumünster, Weather by CustomWeather, © 2016

Note: Actual official high and low records may vary slightly from our data, if they occured in-between our weather recording intervals... More about our weather records

Advertising

Neumünster Weather History for the Previous 24 Hours

Scroll right to see more
 ConditionsComfort  
Time TempWeatherWind HumidityBarometerVisibility
7:00 AM
Mon, Sep 26
58 °FOvercast.1 mph97%30.16 "Hg2 mi
6:00 AM58 °FPassing clouds.1 mph95%30.14 "Hg2 mi
4:00 AM55 °FOvercast.1 mph94%30.11 "Hg2 mi
3:00 AM55 °FPassing clouds.1 mph93%30.11 "Hg3 mi
1:00 AM55 °FClear.1 mph84%30.09 "Hg7 mi
12:00 AM59 °FPassing clouds.1 mph74%30.08 "Hg8 mi
10:00 PM
Sun, Sep 25
62 °FClear.2 mph67%30.05 "Hg10 mi
9:00 PM62 °FClear.2 mph66%30.05 "Hg11 mi
7:00 PM68 °FSunny.2 mph56%30.04 "Hg11 mi
6:00 PM72 °FPassing clouds.3 mph46%30.03 "Hg12 mi
4:00 PM73 °FSunny.3 mph42%30.03 "Hg7 mi
3:00 PM72 °FPassing clouds.6 mph46%30.04 "Hg6 mi
1:00 PM71 °FSunny.5 mph53%30.07 "Hg6 mi
12:00 PM67 °FSunny.5 mph59%30.09 "Hg5 mi
10:00 AM58 °FSunny.3 mph74%30.11 "Hg6 mi
9:00 AM54 °FSunny.3 mph78%30.12 "Hg6 mi
Weather by CustomWeather, © 2016

See weather overviewHow to use our weather pages